Entrance to New York Harbor (44065)

Conditions for Friday

Daily
Weekly
Monthly
Marine Data Graph

Marine & Boating Location Search

Enter a coastal zip code for marine weather.

General Information

Location: 40.369 North -73.703 West
Buoy Type: 3-meter discus buoy
Buoy Hull: 3D46
Payload: ARES payload
Owned by: NDBC
Windspeed: Measured by obtained from anemometer
Sea Surface: Measured by Intake

Weather and Wave Data

Time Temp Humidity Wind Dominant Wave Wind Wave Wave Swell Pressure
  Air
(°F)
Water
(°F)
  Dir Speed
(kts)
Speed
(mph)
Period
(sec)
Height
(ft)
Range
(ft)
Period
(sec)
Height
(ft)
Range
(ft)
Period
(sec)
Height
(ft)
Range
(ft)
Atmo.
(in)
Tend.
(in)
20:50 58 56 49 NW 13.6 15.7 8 4.27 exactly 4.3 4 1.64 0.82 - 2.46 8 3.28 2.46 - 4.10 29.77 +0.10
21:50 58 56 51 NNW 9.7 11.2 8 3.94 exactly 3.9 3 1.64 0.82 - 2.46 8 3.28 2.46 - 4.10 29.81 +0.11
22:50 57 56 53 WNW 5.8 6.7 9 3.94 exactly 3.9 3 1.64 0.82 - 2.46 9 3.28 2.46 - 4.10 29.82 +0.09
00:50 56 56 56 WSW 15.6 17.9 9 3.61 exactly 3.6 5 1.64 0.82 - 2.46 9 3.28 2.46 - 4.10 29.85 +0.04
01:50 55 56 58 West 15.6 17.9 9 3.61 exactly 3.6 3 1.64 0.82 - 2.46 9 3.28 2.46 - 4.10 29.86 +0.03
02:50 54 56 63 West 15.6 17.9 8 2.95 exactly 3.0 3 1.64 0.82 - 2.46 8 3.28 2.46 - 4.10 29.87 +0.03
03:50 54 55 60 WNW 15.6 17.9 10 3.61 exactly 3.6 3 1.64 0.82 - 2.46 10 3.28 2.46 - 4.10 29.88 +0.03
04:50 54 55 54 WNW 17.5 20.1 11 3.61 exactly 3.6 3 1.64 0.82 - 2.46 11 3.28 2.46 - 4.10 29.89 +0.04
05:50 54 55 55 WNW 17.5 20.1 8 3.28 exactly 3.3 3 1.64 0.82 - 2.46 8 1.64 0.82 - 2.46 29.92 +0.06
06:50 54 55 50 WNW 17.5 20.1 8 3.28 exactly 3.3 3 1.64 0.82 - 2.46 8 1.64 0.82 - 2.46 29.96 +0.08
07:50 53 55 60 West 11.7 13.4 10 2.95 exactly 3.0 3 1.64 0.82 - 2.46 10 3.28 2.46 - 4.10 29.99 +0.10
08:50 53 55 57 West 9.7 11.2 10 2.95 exactly 3.0 3 1.64 0.82 - 2.46 10 3.28 2.46 - 4.10 30.00 +0.08
09:50 54 56 55 West 5.8 6.7 8 2.62 exactly 2.6 3 1.64 0.82 - 2.46 8 1.64 0.82 - 2.46 30.01 +0.05
10:50 56 56 51 SW 5.8 6.7 10 2.95 exactly 3.0 - - - 10 3.28 2.46 - 4.10 30.01 +0.02
11:50 57 56 54 SW 3.9 4.5 11 2.62 exactly 2.6 - - - 11 3.28 2.46 - 4.10 30.00 -
12:50 59 57 46 West 9.7 11.2 10 2.95 exactly 3.0 3 1.64 0.82 - 2.46 10 3.28 2.46 - 4.10 29.99 -0.02
13:50 59 57 51 West 7.8 8.9 11 2.95 exactly 3.0 - - - 11 3.28 2.46 - 4.10 29.98 -0.03
14:50 61 57 39 West 9.7 11.2 10 2.62 exactly 2.6 - - - 10 3.28 2.46 - 4.10 29.97 -0.03
15:50 61 57 45 West 7.8 8.9 9 2.62 exactly 2.6 - - - 9 3.28 2.46 - 4.10 29.97 -0.01
16:50 62 57 42 West 9.7 11.2 9 2.95 exactly 3.0 - - - 9 3.28 2.46 - 4.10 29.97 -0.01
17:50 62 57 48 West 7.8 8.9 9 2.95 exactly 3.0 3 1.64 0.82 - 2.46 9 3.28 2.46 - 4.10 29.98 +0.01
18:50 62 57 44 West 9.7 11.2 9 2.95 exactly 3.0 3 1.64 0.82 - 2.46 9 3.28 2.46 - 4.10 29.99 +0.01
19:50 62 56 48 WNW 9.7 11.2 9 2.62 exactly 2.6 3 1.64 0.82 - 2.46 9 1.64 0.82 - 2.46 30.00 +0.03
20:50 62 56 45 NW 9.7 11.2 8 2.62 exactly 2.6 3 1.64 0.82 - 2.46 8 3.28 2.46 - 4.10 30.03 +0.05
21:50 60 56 61 West 7.8 8.9 11 2.30 exactly 2.3 3 1.64 0.82 - 2.46 11 1.64 0.82 - 2.46 30.07 +0.09
22:50 62 56 42 WNW 7.8 8.9 9 2.62 exactly 2.6 - - - 9 3.28 2.46 - 4.10 30.10 +0.10
23:50 61 56 41 NNW 11.7 13.4 8 2.30 exactly 2.3 - - - 8 1.64 0.82 - 2.46 30.11 +0.08
00:50 58 56 61 NNW 3.9 4.5 9 2.30 exactly 2.3 - - - 9 1.64 0.82 - 2.46 30.13 +0.06
01:50 58 56 68 WSW 3.9 4.5 9 2.30 exactly 2.3 - - - 9 1.64 0.82 - 2.46 30.13 +0.04
02:50 58 56 61 West 3.9 4.5 8 1.97 exactly 2.0 - - - 8 1.64 0.82 - 2.46 30.14 +0.03
03:50 58 56 67 WSW 5.8 6.7 9 1.97 exactly 2.0 - - - 9 1.64 0.82 - 2.46 30.14 +0.01

Detailed Wave Spectra

Time Water Depth Wave Height Spectral Peak Period Average Wave Period Sampling Interval Wave Record
20:00 82 ft 4.72 ft 9.1 sec 5.9 sec 0.6 sec 2400 sec
22:00 82 ft 4.00 ft 8.3 sec 5.9 sec 0.6 sec 2400 sec
23:00 82 ft 4.04 ft 9.1 sec 6.8 sec 0.6 sec 2400 sec
01:00 82 ft 3.48 ft 9.1 sec 7.3 sec 0.6 sec 2400 sec
02:00 82 ft 3.71 ft 9.1 sec 5.8 sec 0.6 sec 2400 sec
03:00 82 ft 3.08 ft 8.3 sec 5.2 sec 0.6 sec 2400 sec
04:00 82 ft 3.51 ft 10.0 sec 4.7 sec 0.6 sec 2400 sec
05:00 82 ft 3.61 ft 11.4 sec 4.7 sec 0.6 sec 2400 sec
06:00 82 ft 3.28 ft 8.3 sec 4.2 sec 0.6 sec 2400 sec
07:00 82 ft 3.25 ft 8.3 sec 4.4 sec 0.6 sec 2400 sec
08:00 82 ft 3.02 ft 10.0 sec 4.9 sec 0.6 sec 2400 sec
09:00 82 ft 2.89 ft 10.0 sec 5.6 sec 0.6 sec 2400 sec
10:00 82 ft 2.53 ft 7.7 sec 5.6 sec 0.6 sec 2400 sec
11:00 82 ft 3.05 ft 10.0 sec 7.4 sec 0.6 sec 2400 sec
12:00 82 ft 2.69 ft 11.4 sec 7.3 sec 0.6 sec 2400 sec
13:00 82 ft 2.82 ft 10.0 sec 6.3 sec 0.6 sec 2400 sec
14:00 82 ft 2.82 ft 10.8 sec 6.6 sec 0.6 sec 2400 sec
15:00 82 ft 2.79 ft 10.0 sec 7.2 sec 0.6 sec 2400 sec
16:00 82 ft 2.62 ft 9.1 sec 6.9 sec 0.6 sec 2400 sec
17:00 82 ft 2.85 ft 9.1 sec 6.7 sec 0.6 sec 2400 sec
18:00 82 ft 2.85 ft 9.1 sec 6.4 sec 0.6 sec 2400 sec
19:00 82 ft 2.79 ft 9.1 sec 6.4 sec 0.6 sec 2400 sec
20:00 82 ft 2.56 ft 9.1 sec 5.8 sec 0.6 sec 2400 sec
21:00 82 ft 2.79 ft 8.3 sec 6.4 sec 0.6 sec 2400 sec
22:00 82 ft 2.33 ft 10.8 sec 5.7 sec 0.6 sec 2400 sec
23:00 82 ft 2.59 ft 9.1 sec 6.9 sec 0.6 sec 2400 sec
00:00 82 ft 2.20 ft 8.3 sec 6.2 sec 0.6 sec 2400 sec
01:00 82 ft 2.30 ft 9.1 sec 5.9 sec 0.6 sec 2400 sec
02:00 82 ft 2.26 ft 9.1 sec 6.5 sec 0.6 sec 2400 sec
03:00 82 ft 2.07 ft 8.3 sec 7.4 sec 0.6 sec 2400 sec